Date,TemperatureHighF,TemperatureAvgF,TemperatureLowF,DewpointHighF,DewpointAvgF,DewpointLowF,HumidityHigh,HumidityAvg,HumidityLow,PressureMaxIn,PressureMinIn,WindSpeedMaxMPH,WindSpeedAvgMPH,GustSpeedMaxMPH,PrecipitationSumIn
2013-10-1,90.0,74.8,65.1,55.5,43.0,21.5,62,38,10,29.78,29.69,7,2,12,0.00
2013-10-2,90.0,74.4,64.9,56.4,48.3,24.8,63,43,10,29.83,29.71,8,2,12,0.00
2013-10-3,88.2,77.2,69.1,54.3,46.6,27.0,57,37,12,29.73,29.61,10,4,17,0.00
2013-10-4,91.9,78.6,70.2,56.6,45.4,23.4,61,36,10,29.73,29.64,11,4,18,0.00
2013-10-5,77.4,62.1,46.4,53.9,43.5,31.1,64,51,38,29.77,29.66,13,3,20,0.59
2013-10-6,61.9,52.2,45.1,35.4,16.8,-1.2,56,28,10,29.74,29.65,11,4,18,0.00
2013-10-7,79.9,60.2,51.3,28.5,20.3,5.6,41,24,10,29.92,29.74,6,1,12,0.00
2013-10-8,82.2,62.6,47.5,35.6,23.5,9.2,54,28,10,29.96,29.86,8,2,12,0.00
2013-10-9,83.1,62.6,48.0,34.9,23.8,8.6,54,28,10,29.95,29.84,5,1,9,0.00
2013-10-10,88.9,65.5,49.8,41.9,28.1,13.7,56,30,10,29.92,29.75,8,2,13,0.00
2013-10-11,82.6,69.3,56.5,44.6,34.0,18.8,59,32,10,29.77,29.62,11,3,20,0.00
2013-10-12,84.4,67.3,52.2,45.9,28.7,4.8,55,28,10,30.01,29.68,8,1,12,0.06
2013-10-13,86.0,60.9,44.4,30.3,16.9,-0.6,48,23,10,30.19,30.01,4,0,8,0.00
2013-10-14,68.9,58.9,48.2,42.6,15.7,0.2,50,21,10,30.11,29.77,6,1,9,0.00
2013-10-15,66.9,61.2,52.3,52.2,36.8,18.3,67,42,22,29.81,29.67,7,2,11,0.06
2013-10-16,64.8,54.9,47.5,21.7,11.9,0.2,34,19,10,29.88,29.76,5,1,10,0.00
2013-10-17,70.3,56.3,47.3,34.0,19.4,2.3,54,29,10,29.79,29.70,10,2,15,0.02
2013-10-18,63.0,49.4,41.5,25.4,15.2,-3.4,52,29,10,29.88,29.73,6,2,12,0.04
2013-10-19,62.8,47.8,37.6,25.4,13.0,-2.9,53,30,10,29.85,29.73,10,3,14,0.05
2013-10-20,75.7,58.3,45.0,17.2,10.8,0.9,32,17,10,29.73,29.62,11,4,18,0.00
2013-10-21,60.3,51.0,40.1,21.0,7.9,-6.5,32,19,10,29.87,29.70,7,2,13,0.00
2013-10-22,68.4,49.7,37.4,17.8,9.7,-1.2,42,23,10,29.84,29.60,11,3,19,0.00
2013-10-23,55.2,44.1,34.3,14.8,3.7,-10.1,43,21,10,29.95,29.82,6,1,11,0.00
2013-10-24,57.4,43.9,32.7,16.4,1.7,-13.2,37,19,10,30.21,29.91,9,2,17,0.00
2013-10-25,63.0,43.5,27.5,11.9,0.9,-9.0,40,20,10,30.29,29.97,11,2,17,0.00
2013-10-26,70.3,53.2,40.8,11.1,-0.3,-11.2,20,11,10,29.97,29.83,10,2,14,0.00
2013-10-27,72.3,46.9,29.8,12.6,2.3,-10.0,38,18,10,29.93,29.76,5,1,8,0.00
2013-10-28,79.3,52.5,33.6,18.0,9.8,-0.4,40,20,10,29.97,29.81,8,0,13,0.00
2013-10-29,65.8,55.5,48.0,49.3,37.0,10.4,67,52,19,29.98,29.78,8,1,14,0.47
2013-10-30,73.9,66.1,59.4,60.4,50.9,44.0,79,59,39,29.80,29.55,11,3,17,0.06
2013-10-31,67.1,58.2,48.0,56.5,43.4,31.1,76,58,43,29.55,29.22,9,2,15,0.80